Track COSMOS 531 now! 10-day predictions COSMOS 531 is classified as:
1 6266U 72087D 19048.63210122 -.00000001 +00000-0 +94200-4 0 9994 2 6266 074.0339 102.8396 0030682 022.6975 134.4253 12.54758153120586